Location: Fort Wayne
(41.1310°N, 85.1290°W)
Time: 09:34:30
(UTC-04:00)

Vanguard 3 - Visible Passes

Search period start: 01 July 2016 00:00
Search period end: 11 July 2016 00:00
Orbit: 510 x 3266 km, 33.3° (Epoch: 29 June)

Date Brightness Start Highest point End Pass type
(mag) Time Alt. Az. Time Alt. Az. Time Alt. Az.
01 Jul 10.8 02:53:46 14° SSE 02:56:09 14° SE 03:02:19 10° ESE visible
01 Jul 9.8 04:58:20 12° SSW 05:10:03 32° SSE 05:18:13 10° E visible
02 Jul 10.3 03:48:30 19° S 03:55:29 26° SSE 04:04:24 10° ESE visible
03 Jul 10.6 02:38:36 18° SSE 02:40:39 19° SE 02:49:14 10° ESE visible
03 Jul 9.8 04:43:09 16° SW 04:54:47 38° SSE 05:03:54 10° E visible
04 Jul 11.0 01:28:37 11° SE 01:28:37 11° SE 01:30:10 10° SE visible
04 Jul 10.2 03:33:10 24° S 03:40:00 31° SSE 03:50:11 10° E visible
04 Jul 9.4 05:39:26 10° WSW 05:54:00 49° S 06:02:32 10° E visible
05 Jul 10.5 02:23:06 23° SSE 02:24:59 23° SSE 02:35:21 10° ESE visible
05 Jul 9.7 04:27:39 19° SW 04:39:23 44° SSE 04:49:26 10° E visible
06 Jul 10.9 01:12:57 15° SE 01:12:57 15° SE 01:18:12 10° ESE visible
06 Jul 10.1 03:17:29 28° S 03:24:22 36° SSE 03:35:44 10° E visible
06 Jul 9.4 05:22:53 10° WSW 05:38:42 54° S 05:48:01 10° E visible
07 Jul 10.4 02:07:14 28° SSE 02:09:11 28° SSE 02:21:03 10° E visible
07 Jul 9.7 04:11:46 21° SW 04:23:50 49° SSE 04:34:51 10° E visible
08 Jul 10.8 00:56:53 19° SE 00:56:53 19° SE 01:04:36 10° ESE visible
08 Jul 10.0 03:01:23 31° SSW 03:08:36 41° SSE 03:21:05 10° E visible
08 Jul 9.4 05:06:22 10° WSW 05:23:17 58° S 05:33:26 10° E visible
09 Jul 10.3 01:50:53 32° SSE 01:53:14 33° SSE 02:06:27 10° E visible
09 Jul 9.7 03:55:23 22° SW 04:08:10 54° SSE 04:20:08 10° E visible
10 Jul 10.7 00:40:14 23° SE 00:40:14 23° SE 00:50:20 10° E visible
10 Jul 10.0 02:44:43 33° SSW 02:52:43 46° SSE 03:06:17 10° E visible
10 Jul 9.5 04:49:54 10° WSW 05:07:45 61° S 05:18:45 10° E visible
10 Jul 11.1 23:29:22 11° ESE 23:29:22 11° ESE 23:30:51 10° ESE visible
